DW8356 Weather Reports


Display with metric or nautical units.
time (UTC)temp
F
wind
direction
speed
MPH
gust
MPH
rain 1hr
in
rain 24hr
in
rain mn
in
humidity
%
barometer
mb
20260504014549 74 154 2.0 10.0 0.00 0.00 0.00 41 1015.4
20260504014021 74 180 2.0 8.0 0.00 0.00 0.00 41 1015.5
20260504013518 74 195 3.0 8.0 0.00 0.00 0.00 40 1015.5
20260504013111 75 210 1.0 7.0 0.00 0.00 0.00 39 1015.4
20260504012520 75 161 2.0 7.0 0.00 0.00 0.00 40 1015.4
20260504012020 75 157 2.0 6.0 0.00 0.00 0.00 38 1015.4
20260504011541 75 195 1.0 5.0 0.00 0.00 0.00 37 1015.4
20260504011018 75 236 1.0 4.0 0.00 0.00 0.00 36 1015.2
20260504010522 75 130 1.0 4.0 0.00 0.00 0.00 35 1015.3
20260504010039 76 190 1.0 4.0 0.00 0.00 0.00 35 1015.2
20260504005519 76 198 2.0 4.0 0.00 0.00 0.00 35 1015.3
20260504005019 76 0 1.0 4.0 0.00 0.00 0.00 35 1015.3
20260504004538 77 150 1.0 4.0 0.00 0.00 0.00 35 1015.3
20260504004018 77 185 1.0 8.0 0.00 0.00 0.00 34 1015.3
20260504003519 77 238 1.0 8.0 0.00 0.00 0.00 33 1015.3
20260504003041 78 0 2.0 6.0 0.00 0.00 0.00 34 1015.2
20260504002518 78 204 1.0 6.0 0.00 0.00 0.00 33 1015.2
20260504002018 78 210 1.0 5.0 0.00 0.00 0.00 34 1015.2
20260504001545 78 198 1.0 6.0 0.00 0.00 0.00 34 1015.3
20260504001019 79 221 1.0 6.0 0.00 0.00 0.00 34 1015.3
20260504000518 79 197 1.0 3.0 0.00 0.00 0.00 33 1015.3
20260504000043 79 177 1.0 4.0 0.00 0.00 0.00 33 1015.4
20260503235519 79 168 1.0 4.0 0.00 0.00 0.00 32 1015.4
20260503235020 80 196 1.0 5.0 0.00 0.00 0.00 31 1015.4
20260503234540 80 194 1.0 6.0 0.00 0.00 0.00 32 1015.5
20260503234020 80 159 1.0 6.0 0.00 0.00 0.00 31 1015.5
20260503233519 80 202 2.0 6.0 0.00 0.00 0.00 31 1015.6
20260503233040 80 200 1.0 6.0 0.00 0.00 0.00 30 1015.6
20260503232519 81 229 1.0 6.0 0.00 0.00 0.00 31 1015.6
20260503232019 81 250 1.0 7.0 0.00 0.00 0.00 30 1015.6
20260503231542 82 276 2.0 7.0 0.00 0.00 0.00 31 1015.8
20260503231021 82 246 2.0 6.0 0.00 0.00 0.00 29 1015.8
20260503230520 82 96 1.0 4.0 0.00 0.00 0.00 29 1015.9
20260503230037 82 126 1.0 7.0 0.00 0.00 0.00 29 1015.9
20260503225520 82 191 3.0 7.0 0.00 0.00 0.00 29 1016.0
20260503225019 82 131 1.0 4.0 0.00 0.00 0.00 29 1016.0
20260503224540 82 254 1.0 12.0 0.00 0.00 0.00 28 1016.0
20260503224021 83 266 2.0 12.0 0.00 0.00 0.00 27 1016.1
20260503223519 83 271 1.0 7.0 0.00 0.00 0.00 28 1016.1
20260503223042 83 224 2.0 7.0 0.00 0.00 0.00 27 1016.2
20260503222518 83 217 2.0 5.0 0.00 0.00 0.00 29 1016.2
20260503222018 84 248 1.0 5.0 0.00 0.00 0.00 28 1016.3
20260503221548 84 180 1.0 5.0 0.00 0.00 0.00 28 1016.3
20260503221019 84 194 1.0 5.0 0.00 0.00 0.00 28 1016.4
20260503220520 84 232 1.0 5.0 0.00 0.00 0.00 29 1016.5
20260503220043 84 119 2.0 5.0 0.00 0.00 0.00 29 1016.5
20260503215521 84 271 1.0 13.0 0.00 0.00 0.00 27 1016.5
20260503215019 84 217 2.0 13.0 0.00 0.00 0.00 27 1016.5
20260503214538 84 302 2.0 10.0 0.00 0.00 0.00 28 1016.5
20260503214020 85 195 2.0 7.0 0.00 0.00 0.00 28 1016.6
20260503213519 84 166 1.0 7.0 0.00 0.00 0.00 27 1016.6
20260503213038 84 222 1.0 4.0 0.00 0.00 0.00 29 1016.6
20260503212521 84 341 1.0 4.0 0.00 0.00 0.00 29 1016.7
20260503212020 84 288 1.0 4.0 0.00 0.00 0.00 29 1016.7
20260503211538 84 123 0.0 4.0 0.00 0.00 0.00 29 1017.0
20260503211021 85 149 1.0 9.0 0.00 0.00 0.00 30 1017.0
20260503210519 84 246 2.0 9.0 0.00 0.00 0.00 30 1017.1
20260503210048 84 229 1.0 5.0 0.00 0.00 0.00 29 1017.2
20260503205519 84 237 2.0 8.0 0.00 0.00 0.00 31 1017.3
20260503205019 84 82 1.0 8.0 0.00 0.00 0.00 28 1017.4
20260503204541 84 240 1.0 5.0 0.00 0.00 0.00 29 1017.5
20260503204022 84 233 1.0 13.0 0.00 0.00 0.00 29 1017.4
20260503203522 84 221 1.0 13.0 0.00 0.00 0.00 31 1017.5
20260503203038 84 137 2.0 9.0 0.00 0.00 0.00 30 1017.7
20260503202519 84 0 1.0 4.0 0.00 0.00 0.00 31 1017.8
20260503202018 84 245 1.0 4.0 0.00 0.00 0.00 30 1017.9
20260503201539 84 178 1.0 4.0 0.00 0.00 0.00 30 1018.0
20260503201020 84 252 1.0 5.0 0.00 0.00 0.00 30 1018.1
20260503200519 85 232 1.0 5.0 0.00 0.00 0.00 30 1018.1
20260503200045 85 228 1.0 10.0 0.00 0.00 0.00 29 1018.2
20260503195520 84 304 2.0 10.0 0.00 0.00 0.00 30 1018.3
20260503195020 84 337 1.0 6.0 0.00 0.00 0.00 30 1018.4
20260503194538 83 346 1.0 6.0 0.00 0.00 0.00 30 1018.3
20260503194019 84 275 1.0 4.0 0.00 0.00 0.00 29 1018.5
20260503193519 85 246 1.0 7.0 0.00 0.00 0.00 28 1018.5
20260503193038 84 202 2.0 6.0 0.00 0.00 0.00 30 1018.6
20260503192519 83 231 1.0 4.0 0.00 0.00 0.00 31 1018.6
20260503192022 83 0 1.0 6.0 0.00 0.00 0.00 30 1018.7
20260503191535 84 44 1.0 8.0 0.00 0.00 0.00 29 1018.9
20260503191022 84 234 2.0 8.0 0.00 0.00 0.00 30 1019.0
20260503190519 84 163 1.0 4.0 0.00 0.00 0.00 30 1019.0
20260503190045 83 0 0.0 7.0 0.00 0.00 0.00 33 1019.0
20260503185522 83 245 2.0 7.0 0.00 0.00 0.00 32 1019.1
20260503185025 82 279 1.0 5.0 0.00 0.00 0.00 30 1019.1
20260503184538 83 223 1.0 4.0 0.00 0.00 0.00 33 1019.4
20260503184024 82 0 1.0 6.0 0.00 0.00 0.00 32 1019.4
20260503183520 82 287 2.0 7.0 0.00 0.00 0.00 33 1019.5
20260503183039 82 134 2.0 7.0 0.00 0.00 0.00 32 1019.7
20260503182521 82 134 1.0 5.0 0.00 0.00 0.00 33 1019.7
20260503182019 82 134 1.0 6.0 0.00 0.00 0.00 32 1019.8
20260503181537 82 297 2.0 9.0 0.00 0.00 0.00 35 1019.9
20260503181022 81 154 2.0 9.0 0.00 0.00 0.00 34 1020.0
20260503180519 81 223 2.0 9.0 0.00 0.00 0.00 34 1020.2
20260503180037 82 203 2.0 6.0 0.00 0.00 0.00 34 1020.2
20260503175518 82 0 1.0 6.0 0.00 0.00 0.00 35 1020.4
20260503175018 82 206 1.0 9.0 0.00 0.00 0.00 36 1020.4
20260503174539 81 161 1.0 9.0 0.00 0.00 0.00 37 1020.4
20260503174022 80 260 1.0 7.0 0.00 0.00 0.00 37 1020.6
20260503173523 81 350 1.0 7.0 0.00 0.00 0.00 37 1020.7
20260503173108 81 190 1.0 5.0 0.00 0.00 0.00 38 1020.7
20260503172521 80 167 1.0 4.0 0.00 0.00 0.00 38 1020.7
20260503172022 80 219 1.0 6.0 0.00 0.00 0.00 39 1020.7
20260503171543 80 235 1.0 6.0 0.00 0.00 0.00 39 1020.8
20260503171022 80 252 2.0 5.0 0.00 0.00 0.00 38 1020.9
20260503170519 80 251 1.0 4.0 0.00 0.00 0.00 39 1021.0
20260503150519 74 235 1.0 7.0 0.00 0.00 0.00 47 1021.4
20260503131021 63 0 0.0 1.0 0.00 0.00 0.00 65 1021.2
20260503130521 62 0 0.0 2.0 0.00 0.00 0.00 66 1021.2
20260503110522 54 0 0.0 0.0 0.00 0.00 0.00 79 1020.3
20260503081549 57 0 0.0 0.0 0.00 0.00 0.00 70 1020.1
20260503081021 57 0 0.0 0.0 0.00 0.00 0.00 71 1020.1
20260503080521 57 0 0.0 0.0 0.00 0.00 0.00 71 1020.2
20260503072522 58 0 0.0 1.0 0.00 0.00 0.00 68 1020.3
20260503072022 58 0 0.0 1.0 0.00 0.00 0.00 68 1020.4
20260503071542 58 0 0.0 1.0 0.00 0.00 0.00 68 1020.4
20260503071021 58 0 0.0 1.0 0.00 0.00 0.00 67 1020.4
20260503070521 59 174 0.0 1.0 0.00 0.00 0.00 66 1020.4
20260503055025 61 160 0.0 2.0 0.00 0.00 0.00 59 1020.2
20260503054539 61 160 0.0 2.0 0.00 0.00 0.00 58 1020.1
20260503054021 61 169 0.0 3.0 0.00 0.00 0.00 58 1020.1
20260503053521 61 162 0.0 3.0 0.00 0.00 0.00 58 1020.1
20260503053038 62 0 0.0 2.0 0.00 0.00 0.00 58 1020.1
20260503052525 62 152 0.0 2.0 0.00 0.00 0.00 58 1020.1
20260503052017 62 0 0.0 1.0 0.00 0.00 0.00 58 1020.1
20260503051535 62 0 0.0 1.0 0.00 0.00 0.00 56 1020.1
20260503051022 62 144 0.0 2.0 0.00 0.00 0.00 56 1020.0
20260503050522 63 144 0.0 2.0 0.00 0.00 0.00 56 1020.0
20260503050036 63 0 1.0 2.0 0.00 0.00 0.00 55 1020.0
20260503045520 63 139 0.0 3.0 0.00 0.00 0.00 54 1019.9
20260503045025 63 173 0.0 3.0 0.00 0.00 0.00 54 1020.0
20260503044542 63 166 0.0 3.0 0.00 0.00 0.00 54 1019.9
20260503044025 63 146 0.0 2.0 0.00 0.00 0.00 54 1020.0
20260503043522 64 187 1.0 2.0 0.00 0.00 0.00 54 1020.0
20260503043038 63 0 1.0 2.0 0.00 0.00 0.00 53 1020.0
20260503042522 63 165 1.0 2.0 0.00 0.00 0.00 55 1020.0
20260503042022 63 169 1.0 2.0 0.00 0.00 0.00 55 1019.9
20260503041541 63 156 1.0 2.0 0.00 0.00 0.00 56 1020.0
20260503041021 63 151 0.0 2.0 0.00 0.00 0.00 56 1020.0
20260503040522 63 157 0.0 2.0 0.00 0.00 0.00 56 1020.0
20260503040038 64 159 0.0 2.0 0.00 0.00 0.00 56 1020.1
20260503035522 64 159 1.0 2.0 0.00 0.00 0.00 56 1020.0
20260503035023 64 153 0.0 2.0 0.00 0.00 0.00 55 1020.0
20260503034534 64 153 0.0 2.0 0.00 0.00 0.00 55 1020.0
20260503034022 64 153 0.0 2.0 0.00 0.00 0.00 54 1019.9
20260503033526 64 153 0.0 2.0 0.00 0.00 0.00 54 1019.9
20260503033032 65 153 0.0 2.0 0.00 0.00 0.00 54 1019.8
20260503032522 65 160 0.0 2.0 0.00 0.00 0.00 55 1019.8
20260503032022 65 149 0.0 2.0 0.00 0.00 0.00 55 1019.8
20260503031548 65 149 0.0 2.0 0.00 0.00 0.00 55 1019.8
20260503031022 65 162 0.0 2.0 0.00 0.00 0.00 54 1019.7
20260503030558 65 0 0.0 1.0 0.00 0.00 0.00 54 1019.7
20260503030039 65 0 0.0 1.0 0.00 0.00 0.00 54 1019.6
20260503025524 66 0 0.0 0.0 0.00 0.00 0.00 54 1019.6
20260503025021 66 0 0.0 0.0 0.00 0.00 0.00 53 1019.6
20260503024538 66 0 0.0 0.0 0.00 0.00 0.00 52 1019.5
20260503024021 66 0 0.0 0.0 0.00 0.00 0.00 51 1019.5
20260503023522 66 0 0.0 1.0 0.00 0.00 0.00 51 1019.4
20260503023039 66 0 0.0 1.0 0.00 0.00 0.00 53 1019.4
20260503022522 66 0 0.0 0.0 0.00 0.00 0.00 52 1019.4
20260503022021 67 0 0.0 0.0 0.00 0.00 0.00 52 1019.4
20260503021539 67 0 0.0 0.0 0.00 0.00 0.00 51 1019.3
20260503021021 67 0 0.0 0.0 0.00 0.00 0.00 52 1019.2
20260503020521 67 0 0.0 0.0 0.00 0.00 0.00 52 1019.2
20260503020042 67 0 0.0 1.0 0.00 0.00 0.00 52 1019.1
20260503015523 67 0 0.0 1.0 0.00 0.00 0.00 50 1019.2
20260503015021 68 0 0.0 0.0 0.00 0.00 0.00 49 1019.1